Location: Peebles
(55.6412°N, 3.1714°W)
Time: 01:55:36
(UTC+01:00)

NAPA-1 - Pass Details

Date: 05 July 2022
Orbit: 525 x 528 km, 97.4° (Epoch: 14 August)

Event Time Altitude Azimuth Distance (km) Brightness Sun altitude
Exits shadow 23:44:51 - 205° (SSW) 2,356 ? -9.2°
Reaches altitude 10° 23:46:33 10° 218° (SW) 1,773 ? -9.3°
Maximum altitude 23:49:30 21° 269° (W) 1,230 ? -9.4°
Drops below altitude 10° 23:52:28 10° 319° (NW) 1,783 ? -9.6°
Sets 23:54:59 0° 336° (NNW) 2,678 ? -9.7°
